Lid_Strength_Index
-1 -1 -1 -1 0 1 -0 -1 -1 -0 -0 1 1 1 1 2 2 4 7 5 3 -0 1 3 4 6 8 9 7 9 14 15 14 13 11 8 8 7 6 6 6 5 6 4 2
-1 -1 -1 -1 -1 -0 0 -0 -1 -1 0 -0 1 1 1 2 5 7 4 3 2 0 5 6 6 5 8 9 8 11 15 14 12 12 11 8 8 7 7 7 8 6 4 3 3
-1 -1 -1 -1 -1 -1 -0 -0 -0 -1 -1 0 -1 0 1 2 7 8 2 3 2 1 4 5 4 5 8 8 8 9 13 12 11 10 9 9 8 7 7 9 7 7 6 4 4
-1 -1 -1 -1 -1 -1 -1 -1 0 -0 -1 -1 0 0 0 4 15 5 1 2 2 3 5 6 6 8 9 10 8 10 9 10 9 8 9 10 9 8 7 7 5 5 4 4 5
-1 -1 -1 -0 0 -0 -1 -1 -0 0 -0 -1 -2 -0 3 8 8 3 1 1 3 4 8 8 8 9 11 10 9 10 9 8 7 7 8 8 9 9 8 7 4 4 4 5 4
-1 -1 -1 -1 -0 0 -1 -0 -1 -0 0 -0 -1 -2 4 10 4 4 4 3 5 7 8 9 9 7 10 10 10 9 8 8 8 7 7 8 9 8 7 6 5 5 5 5 4
-2 -1 -1 -1 -0 0 -1 -1 -1 -1 -0 0 -1 2 5 7 5 4 4 3 4 7 9 8 7 8 9 11 8 9 10 10 9 8 9 7 10 10 7 7 6 6 5 5 4
-2 -2 -1 -1 -1 -0 -1 -1 0 -0 -1 0 -0 2 8 1 2 4 5 5 3 3 4 7 5 7 9 8 9 11 12 14 10 8 8 10 14 9 8 8 8 6 7 6 4
-2 -1 -1 -1 -1 -1 -0 -1 -1 -0 -1 -1 1 4 8 3 4 3 5 7 5 4 3 5 5 9 9 12 14 13 18 15 14 9 9 10 13 10 10 9 9 9 8 6 6
-2 -2 -2 -1 -1 -1 -0 -1 -1 -1 -0 -0 1 6 6 8 5 3 3 4 7 7 7 6 8 12 12 14 19 16 16 16 16 12 11 12 12 10 10 11 10 10 10 10 9
-2 -2 -2 -2 -1 -1 0 1 4 5 3 7 6 7 7 4 3 5 4 5 6 8 12 10 13 16 13 12 12 14 15 16 14 11 13 14 13 12 10 12 11 11 11 11 10
-2 -2 -2 -1 -1 -1 0 4 4 4 8 4 4 4 4 4 7 6 4 7 9 12 10 12 14 11 11 11 12 14 15 16 13 11 13 14 15 13 12 11 12 11 12 11 11
-1 -2 -1 -2 -1 0 2 3 -0 1 8 7 5 6 5 4 7 7 5 8 9 11 12 14 12 9 10 11 12 14 15 16 15 14 13 14 16 15 13 12 12 11 11 11 10
-1 -1 -1 -1 1 1 3 1 0 1 12 11 8 6 5 5 8 4 4 7 8 11 11 13 11 11 12 12 12 14 12 13 14 17 20 16 22 17 15 14 13 12 12 11 10
-1 -1 -1 -1 2 4 2 0 0 4 20 9 8 3 5 7 7 7 4 6 10 10 11 14 12 13 13 13 11 12 10 11 12 16 17 18 21 20 17 17 15 14 12 11 11
-1 -1 -1 0 2 1 0 1 3 14 19 13 9 9 9 8 8 6 6 5 6 9 10 11 9 11 12 10 9 10 11 11 13 15 23 18 19 22 18 16 16 15 14 13 12
-1 -1 -0 -0 4 0 -0 4 13 18 11 13 12 10 10 11 10 9 10 11 13 15 14 13 13 11 10 12 10 11 14 21 22 23 24 18 18 18 16 14 13 14 13 13 12
-1 -1 -0 0 0 1 2 9 17 14 14 9 10 10 12 10 11 10 12 13 10 11 14 16 18 13 10 12 13 12 13 19 24 22 21 17 20 18 14 13 13 12 12 11 12
-1 2 3 1 0 1 7 14 15 14 11 12 11 13 13 11 11 12 12 13 11 10 14 15 16 11 11 10 9 12 15 12 17 22 22 19 17 14 13 13 13 13 12 13 12
4 4 4 1 1 3 9 13 16 9 9 9 14 12 18 13 13 13 13 10 11 9 9 12 16 12 11 10 10 11 10 15 18 26 25 22 20 19 16 13 13 13 13 13 12
4 9 4 0 1 7 13 12 13 8 8 10 12 13 12 13 13 13 13 11 9 9 8 10 13 14 11 13 14 13 13 13 14 16 20 22 21 16 15 14 14 14 13 13 12
4 13 3 2 9 9 12 10 8 9 8 9 10 11 12 12 13 13 13 11 8 8 12 10 13 16 14 11 10 11 12 12 16 18 18 18 19 13 14 14 13 13 13 12 11
7 7 3 4 16 17 12 12 10 10 10 10 11 10 9 12 15 12 12 8 7 9 10 10 14 18 16 13 11 12 12 11 12 14 17 20 20 13 13 13 13 13 12 11 11
6 13 7 5 8 12 14 14 11 8 9 8 10 9 10 12 11 13 12 9 8 8 7 8 13 15 17 15 13 14 12 11 12 16 16 16 17 15 14 14 13 12 13 12 10
7 9 9 16 10 9 11 13 14 14 8 8 11 11 11 15 12 13 11 10 8 8 8 10 15 13 12 12 12 12 13 12 13 12 16 14 14 12 12 12 12 12 12 11 11
7 8 9 9 11 11 11 15 13 11 10 11 11 10 9 12 12 15 11 10 11 9 10 9 14 13 17 12 12 14 12 12 12 11 12 12 12 9 9 10 11 10 10 10 10
5 4 7 10 13 13 14 14 11 9 9 8 9 10 11 9 8 7 7 8 9 10 12 12 13 15 17 13 13 17 13 12 12 10 11 14 11 9 9 9 9 9 9 9 9